Weather History for Pituffik, Greenland

Change the Weather History Date:

Friday, September 27, 2013

  Actual Average Record
Temperature  
Mean Temperature 19 °F -  
Max Temperature 24 °F 21 °F 39 °F (1999)
Min Temperature 14 °F 11 °F 6 °F (1996)
Degree Days  
Heating Degree Days 46    
Moisture  
Dew Point 13 °F    
Average Humidity 77    
Maximum Humidity 86    
Minimum Humidity 70    
Precipitation  
Precipitation 0.00 in 0.02 in - ()
Sea Level Pressure  
Sea Level Pressure 30.11 in    
Wind  
Wind Speed 5 mph ()    
Max Wind Speed 10 mph    
Max Gust Speed -    
Visibility 6.2 miles    
Events      
Averages and records for this station are not official NWS values.
T = Trace of Precipitation, MM = Missing Value Source: Averaged Metar Reports

Daily Weather History Graph

Daily Weather History Graph

Search for Another Location

Airport:

Trip Planner

Search our weather history database for the weather conditions in past years. The results will help you decide how hot, cold, wet, or windy it might be!

Date:

Astronomy

Sep. 27, 2013 Rise Set
Actual Time 7:41 AM ADT 7:07 PM ADT
Civil Twilight 6:11 AM ADT 8:36 PM ADT
Nautical Twilight 4:05 AM ADT 10:38 PM ADT
Astronomical Twilight Sun does not rise Sun does not rise
Moon No Moon Rise No Moon Set
Length of Visible Light 14h 25m
Length of Day
11h 25m
Last Quarter, 46% of the Moon is Illuminated
Sep 27
Last Quarter
Oct 4
New
Oct 11
First Quarter
Oct 18
Full
Oct 26
Last Quarter

Hourly Weather History & Observations

Time (ADT) Temp. Windchill Dew Point Humidity Pressure Visibility Wind Dir Wind Speed Gust Speed Precip Events Conditions
12:58 AM 14.9 °F 3.1 °F 9.1 °F 78% 30.14 in 6.2 mi East 9.2 mph - N/A   Clear
1:58 AM 14.9 °F 6.1 °F 9.1 °F 78% 30.14 in 6.2 mi ESE 5.8 mph - N/A   Clear
2:58 AM 15.4 °F 6.8 °F 9.9 °F 79% 30.14 in 6.2 mi East 5.8 mph - N/A   Clear
3:58 AM 14.2 °F 2.2 °F 8.6 °F 78% 30.14 in 6.2 mi ESE 9.2 mph - N/A   Clear
4:58 AM 14.4 °F 4.3 °F 8.8 °F 79% 30.14 in 6.2 mi East 6.9 mph - N/A   Clear
5:58 AM 14.2 °F 4.1 °F 8.8 °F 79% 30.14 in 6.2 mi East 6.9 mph - N/A   Clear
6:58 AM 14.7 °F 3.8 °F 8.8 °F 77% 30.14 in 6.2 mi ESE 8.1 mph - N/A   Clear
7:58 AM 14.7 °F 2.1 °F 8.6 °F 77% 30.14 in 6.2 mi ESE 10.4 mph - N/A   Clear
8:58 AM 15.1 °F 4.2 °F 8.4 °F 75% 30.13 in 6.2 mi East 8.1 mph - N/A   Clear
9:58 AM 16.9 °F 6.4 °F 10.6 °F 76% 30.14 in 6.2 mi East 8.1 mph - N/A   Clear
10:58 AM 20.8 °F 16.0 °F 13.6 °F 74% 30.13 in 6.2 mi East 3.5 mph - N/A   Clear
11:58 AM 22.3 °F 14.9 °F 14.0 °F 71% 30.12 in 6.2 mi East 5.8 mph - N/A   Clear
12:58 PM 22.8 °F - 16.3 °F 76% 30.12 in 6.2 mi Calm Calm - N/A   Clear
1:58 PM 23.7 °F 16.6 °F 16.2 °F 73% 30.11 in 6.2 mi SSE 5.8 mph - N/A   Partly Cloudy
2:58 PM 24.1 °F 17.0 °F 15.4 °F 70% 30.09 in 6.2 mi SSE 5.8 mph - N/A   Scattered Clouds
3:58 PM 24.8 °F - 16.7 °F 71% 30.09 in 6.2 mi SSW 1.2 mph - N/A   Mostly Cloudy
4:58 PM 24.6 °F - 16.9 °F 72% 30.09 in 6.2 mi Calm Calm - N/A   Mostly Cloudy
5:58 PM 23.7 °F - 17.2 °F 76% 30.09 in 6.2 mi Calm Calm - N/A   Overcast
6:58 PM 22.6 °F - 17.1 °F 79% 30.08 in 6.2 mi Calm Calm - N/A   Overcast
7:58 PM 21.6 °F - 16.7 °F 82% 30.07 in 6.2 mi ENE 1.2 mph - N/A   Overcast
8:58 PM 21.4 °F 16.6 °F 16.7 °F 82% 30.06 in 6.2 mi East 3.5 mph - N/A   Overcast
9:58 PM 19.6 °F 14.5 °F 15.8 °F 85% 30.06 in 6.2 mi ESE 3.5 mph - N/A   Partly Cloudy
10:58 PM 18.5 °F 9.3 °F 14.9 °F 86% 30.04 in 6.2 mi East 6.9 mph - N/A   Mostly Cloudy
11:58 PM 19.2 °F 9.3 °F 15.3 °F 85% 30.04 in 6.2 mi East 8.1 mph - N/A   Clear